Regional Weather Roundup
Issued by NWS

Home | Current Version | Previous Version | Graphics & Text | Print | Product List | Glossary On
Versions: 1 2 3 4 5 6 7 8 9 10 11 12 13 14 15 16 17 18 19 20 21 22 23 24 25 26 27 28 29 30 31 32 33 34 35 36 37 38 39 40 41 42 43 44 45 46 47 48 49 50
066
ASUS43 KDTX 042210
RWRMI
MICHIGAN HOURLY REGIONAL WEATHER ROUNDUP
NATIONAL WEATHER SERVICE DETROIT/PONTIAC MI
ISSUED BY NATIONAL WEATHER SERVICE GRAND RAPIDS MI
500 PM EST SUN DEC 04 2016

NOTE: "FAIR" INDICATES FEW OR NO CLOUDS BELOW 12,000 FEET WITH NO
SIGNIFICANT WEATHER AND/OR OBSTRUCTION TO VISIBILITY.

MIZ047>049-052>055-059>063-066>070-074>076-081>083-042300-
SOUTHEAST LOWER MICHIGAN

CITY           SKY/WX    TMP DP  RH WIND       PRES   REMARKS
ADRIAN         CLOUDY    36  30  79 E9        29.98F WCI  29
ALMA           LGT SNOW  33  32  97 E6        29.97F WCI  27
ANN ARBOR      CLOUDY    36  28  73 E7        30.00F WCI  30
BAD AXE        LGT SNOW  33  31  90 CALM      30.04F
DETROIT CITY   CLOUDY    37  29  72 SE5       30.03F WCI  33
DETROIT        CLOUDY    38  28  67 E6        30.02F WCI  33
FLINT          CLOUDY    36  27  69 SE7       30.01F WCI  30
GROSSE ILE     CLOUDY    38  29  70 E5        30.01F WCI  34
HILLSDALE      LGT SNOW  32  32 100 E10       29.94F VSB 1   WCI  24
HOWELL         CLOUDY    36  27  71 E8        29.98F WCI  30

CITY           SKY/WX    TMP DP  RH WIND       PRES   REMARKS
JACKSON        LGT SNOW  34  29  82 SE10      29.94F WCI  26
LANSING        LGT SNOW  33  30  88 E8        29.96F VSB 1   WCI  26
MASON          LGT SNOW  33  31  94 E6        29.95F VSB 1   WCI  27
MONROE         CLOUDY    38  30  72 E7        30.01F WCI  33
MT. CLEMENS    CLOUDY    38  30  72 SE6       30.00F WCI  34
PONTIAC        CLOUDY    36  27  69 SE7       30.00F WCI  30
PORT HOPE        N/A     34  31  88 CALM      30.02F
PORT HURON     CLOUDY    37  30  75 CALM      30.04F
TRI CITIES     SNOW      33  33 100 E6        30.00F VSB 1/2 WCI  28
YPSILANTI      CLOUDY    38  29  70 E6        30.02F WCI  33
$$
MIZ043>046-050>051-056>058-064>065-071>073-077>080-042300-
SOUTHWEST LOWER MICHIGAN

CITY           SKY/WX    TMP DP  RH WIND       PRES   REMARKS
BATTLE CREEK   SNOW      33  32  96 E6        29.92F VSB 1/2 WCI  28
BENTON HARBOR  HVY SNOW  33  31  92 E3        29.91F VSB 1/4
BIG RAPIDS     SNOW      33  31  91 SE6       29.94F VSB 1/2 WCI  27
COLDWATER      SNOW      33  32  97 E10G16    29.92F VSB 1/2 WCI  25
HOLLAND        LGT SNOW  33  31  92 E7        29.93F VSB 3/4 WCI  27
GRAND RAPIDS   SNOW      32  30  92 E9        29.94F VSB 1/2 WCI  24
KALAMAZOO      HVY SNOW  33  31  92 E7        29.91F VSB 1/4 WCI  27
MARSHALL       LGT SNOW  33  32  97 E6        29.93F VSB 1   WCI  27
MOUNT PLEASANT LGT SNOW  32  32  97 SE7       29.97F WCI  26
MUSKEGON       SNOW      33  32  96 SE8       29.93F VSB 1/2 WCI  26
STURGIS        SNOW      33  32  96 SE10      29.90F VSB 1/2 WCI  25
$$
MIZ016>042-042300-
NORTHERN LOWER MICHIGAN

CITY           SKY/WX    TMP DP  RH WIND       PRES   REMARKS
ALPENA         LGT SNOW  33  31  92 S7        30.01F FOG     WCI  27
BEAVER ISLAND  LGT SNOW  32  32 100 SE6       29.94F WCI  27
BELLAIRE       LGT SNOW  32  32  99 CALM      29.96F VSB 1
CADILLAC       LGT SNOW  31  29  94 SE8       29.91F VSB 1   WCI  23
CHARLEVOIX     LGT SNOW  32  32  99 SE6       29.98F VSB 1   WCI  27
GAYLORD        LGT SNOW  31  27  85 SE9       29.94F VSB 3/4 WCI  23
HOUGHTON LAKE  LGT SNOW  31  29  92 SE8       29.94F FOG     WCI  23
MANISTEE       LGT SNOW  32  30  93 E5        29.92F VSB 3/4 WCI  27
OSCODA         FLURRIES  37  29  73 MISG      30.00F
PELLSTON       LGT SNOW  32  30  92 SE6       29.97F FOG     WCI  26
TRAVERSE CITY  LGT SNOW  33  32  96 CALM      29.94F VSB 3/4
LUDINGTON      LGT SNOW  32  32 100 SE6       29.92F VSB 3/4 WCI  26
$$
MIZ007>008-015-042300-
EASTERN UPPER MICHIGAN

CITY           SKY/WX    TMP DP  RH WIND       PRES   REMARKS
KINROSS        LGT SNOW  32  31  96 SE10      29.97F VSB 3/4 WCI  24
MACKINAC ISLAN LGT SNOW  32  32 100 S7        29.97F WCI  26
NEWBERRY       LGT SNOW  32  31  97 SE12      29.92F WCI  23
S. S. MARIE    LGT SNOW  32  30  92 E9        29.98S VSB 3/4 WCI  24
$$
MIZ004>006-011>014-085-042300-
CENTRAL UPPER MICHIGAN

CITY           SKY/WX    TMP DP  RH WIND       PRES   REMARKS
MANISTIQUE     LGT SNOW  34  32  93 S12G20    29.92F WCI  25
ESCANABA       LGT SNOW  32  31  96 CALM      29.91F VSB 3/4
MENOMINEE      LGT SNOW  32  31  96 CALM      29.91F VSB 1
SAWYER-GWINN   LGT SNOW  28  27  93 S8        29.87F WCI  20
$$
MIZ001>003-009>011-084-042300-
WESTERN UPPER MICHIGAN

CITY           SKY/WX    TMP DP  RH WIND       PRES   REMARKS
IRON MOUNTAIN  LGT SNOW  30  26  85 SE6       29.84F VSB 1   WCI  24
HOUGHTON       SNOW      30  27  88 SE9       29.82F VSB 1/2 WCI  22
COPPER HARBOR    N/A     32  30  92 SW6       29.86F WCI  26
IRONWOOD       LGT SNOW  31  28  89 S10       29.76F FOG     WCI  22
$$

ABBREVIATIONS USED IN REMARKS
   TC - TEMPERATURE IN CELSIUS
  WCI - WIND CHILL INDEX
   HX - HEAT INDEX
  VSB - VISIBILITY





USA.gov is the U.S. government's official web portal to all federal, state and local government web resources and services.